sat.trackr.live / text

‹ back to catalog

STARLINK-3534

NORAD 52120 · 2022-029AJ

PAYLOAD ACTIVE UNKNOWN

§ Identity

Operator
Country
US
Launch date
2022-03-19
Launch site
AFETR
Launch vehicle
Mass (kg)
RCS (m²)

Purposes: comms

External: N2YO · Heavens-Above · Gunter

§ Orbital elements

Epoch: 2026-05-25T02:30:03.580704Z

Period
95.44 min
Inclination
53.2134°
Eccentricity
0.0001345
Mean motion
15.08839270 rev/d
Perigee alt
538.8 km
Apogee alt
540.7 km
Semi-major
6,917.9 km
B*
5.6101e-5
RAAN
96.0825°
Arg perigee
89.8933°
Mean anomaly
270.2213°
Rev number
23,233

§ Raw data

STARLINK-35341 52120U 22029AJ  26145.10420811  .00000605  00000+0  56101-4 0  99972 52120  53.2134  96.0825 0001345  89.8933 270.2213 15.08839270232336

JSON: /api/v1/satellites/52120 · /tle

For live sub-satellite position, see the globe view (requires WebGL).

§ Visibility from observer

Set your observer location to see the next 7 days of passes ≥ 10°. The values pass through the URL so the page stays shareable.

No JS? Fill the form by hand. The geolocation button needs JavaScript.